Regional Weather Roundup
Issued by NWS

Home | Current Version | Previous Version | Graphics & Text | Print | Product List | Glossary On
Versions: 1 2 3 4 5 6 7 8 9 10 11 12 13 14 15 16 17 18 19 20 21 22 23 24 25 26 27 28 29 30 31 32 33 34 35 36 37 38 39 40 41 42 43 44 45 46 47 48 49 50
000
ASUS43 KMKX 240600
RWRWI

WISCONSIN REGIONAL WEATHER ROUNDUP
NATIONAL WEATHER SERVICE MILWAUKEE/SULLIVAN WI
100 AM CDT TUE OCT 24 2017

NOTE: "FAIR" INDICATES FEW OR NO CLOUDS BELOW 12,000 FEET WITH NO
SIGNIFICANT WEATHER AND/OR OBSTRUCTIONS TO VISIBILITY.

WIZ001-002-006>008-014>016-023>028-240700-
NORTHWEST WISCONSIN

CITY           SKY/WX    TMP DP  RH WIND       PRES   REMARKS
SUPERIOR ARPT  CLOUDY    45  35  67 N10G20    29.80F
ASHLAND        CLOUDY    44  36  73 NW15G23   29.73F
6HR MIN TEMP:  44; 6HR MAX TEMP:  53;

HAYWARD        CLOUDY    44  34  67 N15G23    29.73F
6HR MIN TEMP:  44; 6HR MAX TEMP:  51;

SIREN          CLOUDY    44  32  63 N15G23    29.80F
CUMBERLAND     CLOUDY    43  32  65 N24G32    29.75F
RICE LAKE      CLOUDY    44  34  66 NW10G22   29.76F
CHETEK         CLOUDY    45  36  70 N10G25    29.73F
LADYSMITH      CLOUDY    45  39  80 NW16      29.71S
EAU CLAIRE     NOT AVBL
MENOMONIE      CLOUDY    46  35  64 NW15G28   29.75S
NEW RICHMOND   CLOUDY    45  31  57 N24G31    29.80S
OSCEOLA        CLOUDY    45  32  60 NW15G24   29.84S
$$

WIZ003>005-009-010-017-018-240700-
NORTH CENTRAL WISCONSIN

CITY           SKY/WX    TMP DP  RH WIND       PRES   REMARKS
MANITOWISH WTR CLOUDY    42  42 100 NW13G20   29.63F
ARBOR VITAE    CLOUDY    44  42  94 N15G22    29.61F
WOODRUFF       CLOUDY    44  42  94 N15G22    29.61F
RHINELANDER    LGT RAIN  45  44  97 NW16G25   29.58F
6HR MIN TEMP:  45; 6HR MAX TEMP:  48; 6HR PCP:  0.18;

EAGLE RIVER    LGT RAIN  45  45  97 NW17G24   29.57F
LAND O LAKES   LGT RAIN  46  43  91 NW9G18    29.59F
PHILLIPS       DRIZZLE   41  40  98 N10G21    29.65F
TOMAHAWK       LGT RAIN  44  42  93 NW9G16    29.61F
MEDFORD        LGT RAIN  43  41  91 NW17G24   29.62F
MERRILL        DRIZZLE   46  45  97 N17G24    29.59F
$$

WIZ029-030-035-036-043>047-240700-
CENTRAL WISCONSIN

CITY           SKY/WX    TMP DP  RH WIND       PRES   REMARKS
WAUSAU         LGT RAIN  46  43  89 NW14G25   29.56S
6HR MIN TEMP:  46; 6HR MAX TEMP:  50; 6HR PCP:  0.13;

MOSINEE        LGT RAIN  45  45 100 NW14G24   29.58F
MARSHFIELD     LGT RAIN  46  43  89 NW14      29.60F
6HR MIN TEMP:  46; 6HR MAX TEMP:  50; 6HR PCP:  0.05;

STEVENS POINT  LGT RAIN  46  46 100 NW12      29.57F
WAUPACA        DRIZZLE   52  49  90 NW10G18   29.53F
WAUTOMA        LGT RAIN N/A N/A N/A NW17G23   29.55F
WISC RAPIDS    LGT RAIN  47  50 100 NW17G25   29.59F
6HR MIN TEMP:  47; 6HR MAX TEMP:  51; 6HR PCP:  0.24;

CAMP DOUGLAS   NOT AVBL
$$

WIZ011>013-019>022-031-037>040-048>050-240700-
NORTHEAST WISCONSIN

CITY           SKY/WX    TMP DP  RH WIND       PRES   REMARKS
ANTIGO         CLOUDY    47  46  93 N16G22    29.54F
SHAWANO        CLOUDY    51  45  79 NW8       29.50F
OCONTO         CLOUDY    47  44  90 W5        29.48F
STURGEON BAY   CLOUDY    49  46  90 NW7       29.47
6HR MIN TEMP:  48; 6HR MAX TEMP:  51;

GREEN BAY      CLOUDY    49  47  93 NW10      29.48F
6HR MIN TEMP:  48; 6HR MAX TEMP:  50;

MANITOWOC      CLOUDY    48  46  93 W6        29.48F
6HR MIN TEMP:  48; 6HR MAX TEMP:  50;

APPLETON       CLOUDY    48  43  81 NW10G16   29.49F
CLINTONVILLE   NOT AVBL
OSHKOSH        CLOUDY    50  47  89 NW13      29.50F
6HR MIN TEMP:  49; 6HR MAX TEMP:  50;

$$

WIZ032>034-041-042-053>061-240700-
SOUTHWEST WISCONSIN

CITY           SKY/WX    TMP DP  RH WIND       PRES   REMARKS
LA CROSSE      LGT RAIN  48  41  76 NW18      29.69F
6HR MIN TEMP:  48; 6HR MAX TEMP:  54; 6HR PCP: TRACE;

SPARTA         RAIN      44  43  95 NW12G20   29.67F
VIROQUA        CLOUDY    44  43  93 NW16G23   29.67F
BOSCOBEL       LGT RAIN  49  41  74 NW9       29.67F
6HR MIN TEMP:  49; 6HR MAX TEMP:  53; 6HR PCP:  0.01;

PRAIRIE DU CHI CLOUDY    48  36  62 NW10G21   29.70F
PLATTEVILLE    CLOUDY    48  44  85 NW13G20   29.66F
$$

WIZ056-057-062-063-064-067-068-240700-
SOUTH CENTRAL WISCONSIN

CITY           SKY/WX    TMP DP  RH WIND       PRES   REMARKS
REEDSBURG      RAIN      46  46 100 NW9G17    29.61F
BARABOO/DELLS  LGT RAIN  46  44  93 NW13G20   29.59F
LONE ROCK      LGT RAIN  48  44  86 NW13G21   29.64F
MINERAL POINT  LGT RAIN  48  45  87 NW9       29.63F
MADISON        LGT RAIN  47  45  93 W12G20    29.57F
6HR MIN TEMP:  47; 6HR MAX TEMP:  56; 6HR PCP:  0.23;

MIDDLETON      CLOUDY    48  47  98 NW15G21   29.60F
WATERTOWN      LGT RAIN  48  48 100 W10       29.54F
MONROE         RAIN      45  43  93 W12       29.61F
JANESVILLE     LGT RAIN  46  46 100 W10G18    29.58F
$$

WIZ051-052-058>065-066-070>072-240700-
SOUTHEAST WISCONSIN

CITY           SKY/WX    TMP DP  RH WIND       PRES   REMARKS
MILWAUKEE      CLOUDY    52  47  83 W10       29.53F
6HR MIN TEMP:  51; 6HR MAX TEMP:  54;

WAUKESHA       CLOUDY    46  45  93 W13G18    29.54F
MILWAUKEE/TIMM CLOUDY    50  43  76 W9        29.53F
RACINE         LGT RAIN  50  47  89 W8        29.55S
6HR MIN TEMP:  49; 6HR MAX TEMP:  52; 6HR PCP: TRACE;

BURLINGTON     DRIZZLE   48  48 100 W13       29.55F
KENOSHA        LGT RAIN  50  46  86 W13       29.54F
6HR MIN TEMP:  48; 6HR MAX TEMP:  52; 6HR PCP: TRACE;

FOND DU LAC    LGT RAIN  51  46  83 NW12G21   29.51F
6HR MIN TEMP:  49; 6HR MAX TEMP:  51; 6HR PCP: TRACE;

SHEBOYGAN      CLOUDY    49  47  93 W6        29.49F
6HR MIN TEMP:  47; 6HR MAX TEMP:  49; 6HR PCP: TRACE;

WEST BEND      CLOUDY    50  46  87 NW9       29.51F
JUNEAU         LGT RAIN  48  46  94 W6        29.54F
$$

LSZ147-162-240700-
LAKE SUPERIOR

STATION/POSITION TIME  TEMP    WIND        PRES    WAVE
                       AIR SEA DIR/SP/G            HT/PER
                 (UTC) (F)     (DEG/KT/KT) (MB)    (FT/S)
W MID LAKE BUOY  0450   50 51              1003.6F   4/ 4
DEVILS ISLAND    0500   46     330/ 26/ 29 1006.9F
PORT WING        0540          330/ 23/ 28 1008.1F
SAXON HARBOR     0530   48     320/ 24/ 28 1005.4F
$$

LMZ867-665-643>646-240700-
LAKE MICHIGAN

STATION/POSITION TIME  TEMP    WIND        PRES    WAVE
                       AIR SEA DIR/SP/G            HT/PER
                 (UTC) (F)     (DEG/KT/KT) (MB)    (FT/S)
S GREEN BAY BUOY 0530   51 58  300/ 10/ 12  998.4F
N MID LAKE BUOY  0450   52 57  340/ 21/ 27  997.1F   3/ 4
NORTHPORT PIER   0540   52     320/ 18/ 21  997.3F
KEWAUNEE LAKESHO 0530   50     290/  7/  9  997.4F
SHEBOYGAN LAKESH 0500   50     250/  5/  6  999.2F
PORT WASHINGTON  0540   52     290/  6/  9 1000.3F
MILWAUKEE LAKESH 0530   52     280/ 10/ 13   N/A
S MID LAKE BUOY  0450   54 60  300/ 14/ 16 1000.1F   2/ 5
KENOSHA   LAKESH 0500   51     290/ 14/ 21 1000.7
$$

TC  - TEMPERATURE IN CELSIUS
VSB - VISIBILITY IN STATUTE MILES
WCI - WIND CHILL INDEX
HX  - HEAT INDEX





USA.gov is the U.S. government's official web portal to all federal, state and local government web resources and services.